Simultaneous Nadir Overpasses (SNOs) Predictions

Prediction of SNOs between LANDSAT-8 and NOAA-19 Satellite Orbit:

Table of predicted SNOs for the next 14.0 days since TLE Epoch: 6/19/2015
Index Date (LANDSAT-8) Time (LANDSAT-8) Lat,Lon (LANDSAT-8) SZA (LANDSAT-8 ) Date (NOAA-19) Time (NOAA-19) Lat,Lon (NOAA-19) SZA (NOAA-19 ) Distance(km) Time Diff (sec)
1 06/19/2015 16:43:51 -73.30, 110.59 130.21 06/19/2015 16:43:25 -73.27, 110.56 130.24 3.24 26
2 06/19/2015 17:33:19 73.16, -82.04 49.65 06/19/2015 17:34:31 73.18, -82.02 49.67 2.22 72
3 06/21/2015 21:28:04 -73.56, 40.07 129.96 06/21/2015 21:26:53 -73.62, 38.93 129.91 36.59 71
4 06/21/2015 22:17:36 73.22,-153.00 49.69 06/21/2015 22:17:53 73.25,-152.96 49.72 3.40 17
5 06/24/2015 03:01:52 73.32, 136.13 49.81 06/24/2015 03:01:15 73.32, 136.07 49.81 1.76 37
6 06/24/2015 03:51:22 -73.20, -56.48 130.31 06/24/2015 03:52:08 -73.21, -56.41 130.29 2.49 46
7 06/26/2015 07:45:56 74.03, 66.61 50.60 06/26/2015 07:44:51 74.08, 63.40 50.63 98.20 65
8 06/26/2015 08:35:38 -73.29,-127.36 130.16 06/26/2015 08:35:30 -73.28,-127.37 130.17 1.49 8
9 06/26/2015 09:25:17 72.57, 38.86 49.11 06/26/2015 09:26:23 72.57, 41.42 49.13 85.43 66
10 06/28/2015 13:19:55 -73.33, 161.64 130.04 06/28/2015 13:18:52 -73.35, 161.67 130.02 2.98 63
11 06/28/2015 14:09:22 73.23, -30.91 49.87 06/28/2015 14:09:57 73.25, -30.89 49.89 2.57 35
12 06/30/2015 18:53:38 73.31,-101.82 50.06 06/30/2015 18:53:18 73.30,-101.79 50.06 1.32 20
13 06/30/2015 19:43:07 -73.25,
